This is the latest recevied weather packets stored in our database for station/object OE3MHU-13. If no packets are shown the sender has not sent any weather packets the latest 10 day(s).
| Time | Temp. | Humidity | Pressure | Rain* | Wind** | Luminosity | Snow |
|---|---|---|---|---|---|---|---|
| 1788104449 | 31.11° C | 39% | 1016.2 hPa | 0 mm | - | - | - |
| 1788104139 | 31.11° C | 38% | 1016.3 hPa | 0 mm | - | - | - |
| 1788103833 | 31.67° C | 38% | 1016.3 hPa | 0 mm | - | - | - |
| 1788103527 | 31.67° C | 38% | 1016.3 hPa | 0 mm | - | - | - |
| 1788103221 | 31.67° C | 37% | 1016.3 hPa | 0 mm | - | - | - |
| 1788102914 | 31.67° C | 38% | 1016.3 hPa | 0 mm | - | - | - |
| 1788102609 | 31.67° C | 38% | 1016.2 hPa | 0 mm | - | - | - |
| 1788102303 | 31.67° C | 38% | 1016.4 hPa | 0 mm | - | - | - |
| 1788101996 | 31.67° C | 37% | 1016.4 hPa | 0 mm | - | - | - |
| 1788101691 | 32.22° C | 37% | 1016.3 hPa | 0 mm | - | - | - |
| 1788101385 | 32.22° C | 37% | 1016.4 hPa | 0 mm | - | - | - |
| 1788101079 | 32.22° C | 38% | 1016.4 hPa | 0 mm | - | - | - |
| 1788100773 | 32.22° C | 38% | 1016.5 hPa | 0 mm | - | - | - |
| 1788100468 | 31.67° C | 39% | 1016.5 hPa | 0 mm | - | - | - |
| 1788100161 | 31.67° C | 38% | 1016.5 hPa | 0 mm | - | - | - |
| 1788099856 | 31.11° C | 39% | 1016.6 hPa | 0 mm | - | - | - |
| 1788099549 | 30.56° C | 39% | 1016.6 hPa | 0 mm | - | - | - |
| 1788099244 | 30.56° C | 40% | 1016.7 hPa | 0 mm | - | - | - |
| 1788098937 | 30.56° C | 40% | 1016.6 hPa | 0 mm | - | - | - |
| 1788098631 | 30.56° C | 40% | 1016.7 hPa | 0 mm | - | - | - |
| 1788098325 | 31.11° C | 39% | 1016.7 hPa | 0 mm | - | - | - |
| 1788098019 | 31.67° C | 38% | 1016.7 hPa | 0 mm | - | - | - |
| 1788097713 | 31.67° C | 38% | 1016.8 hPa | 0 mm | - | - | - |
| 1788097407 | 31.67° C | 39% | 1016.8 hPa | 0 mm | - | - | - |
| 1788097102 | 31.67° C | 38% | 1016.9 hPa | 0 mm | - | - | - |
* Rain latest hour (hover to see other rain measurements)
** Current wind speed in m/s (hover to see current wind gust speed)